Flag for Canada Weather past 2 weeks in Sidney, British Columbia, Canada

Now
63 °F

Clear.


Feels Like: 63 °F
Forecast: 60 / 79 °F
Wind: No wind

Location: Victoria Int. Airportb. C.

Current Time: Jul 31, 2015 at 2:42:50 AM

Latest Report: Jul 31, 2015 at 2:00 AM


Visibility: 30 mi

Pressure: 30.04 "Hg

Humidity: 73%

Dew point: 54 °F

Location of SidneyLocation

Historic Weather in Sidney — Graph

°F

Sidney temperature yesterday

Maximum temperature yesterday: 84 °F (at 3:00 PM)
Minimum temperature yesterday: 57 °F (at 4:00 AM)
Average temperature yesterday: 72 °F

Past Weeks' High & Low Weather Summary

 TemperatureHumidityPressure
High86 °F (Jul 18, 6:00 PM)94% (Jul 24, 8:00 AM)30.28 "Hg (Jul 24, 8:00 AM)
Low52 °F (Jul 27, 6:00 AM)29% (Jul 18, 6:00 PM)29.85 "Hg (Jul 22, 8:00 PM)
Average66 °F65%30.04 "Hg
* Reported Jul 16 1:00 AM — Jul 31 1:00 AM, Sidney, Weather by CustomWeather, © 2015

Note: Actual official high and low records may vary slightly from our data, if they occured in-between our weather recording intervals... More about our weather records

Advertising

Sidney weather history for previous 24 hours

 ConditionsComfort  
Time TempWeatherWind HumidityBarometerVisibility
1:00 AM
Fri, Jul 31
63 °FPassing clouds.2 mph68%30.03 "Hg30 mi
12:00 AM66 °FPassing clouds.No wind60%30.03 "Hg30 mi
11:00 PM
Thu, Jul 30
68 °FClear.3 mph60%30.02 "Hg30 mi
10:00 PM68 °FClear.2 mph60%30.02 "Hg30 mi
9:00 PM72 °FPassing clouds.3 mph50%30.01 "Hg30 mi
8:00 PM75 °FSunny.5 mph44%30.01 "Hg30 mi
7:00 PM82 °FSunny.5 mph35%30.02 "Hg30 mi
6:00 PM84 °FSunny.6 mph35%30.03 "Hg30 mi
5:00 PM82 °FSunny.6 mph37%30.04 "Hg30 mi
4:00 PM84 °FPassing clouds.7 mph35%30.06 "Hg30 mi
3:00 PM84 °FPassing clouds.9 mph29%30.08 "Hg30 mi
2:00 PM82 °FPassing clouds.9 mph35%30.10 "Hg30 mi
1:00 PM82 °FPassing clouds.9 mph32%30.11 "Hg30 mi
12:00 PM81 °FPassing clouds.7 mph37%30.11 "Hg30 mi
11:00 AM79 °FPassing clouds.6 mph42%30.12 "Hg30 mi
10:00 AM75 °FPassing clouds.8 mph47%30.13 "Hg30 mi
9:00 AM72 °FPassing clouds.3 mph50%30.13 "Hg30 mi
8:00 AM66 °FPassing clouds.5 mph60%30.14 "Hg30 mi
7:00 AM63 °FPassing clouds.5 mph73%30.13 "Hg30 mi
6:00 AM57 °FPassing clouds.5 mph82%30.12 "Hg30 mi
5:00 AM57 °FPassing clouds.6 mph82%30.11 "Hg30 mi
4:00 AM57 °FPassing clouds.2 mph82%30.11 "Hg30 mi
3:00 AM59 °FClear.3 mph77%30.11 "Hg30 mi
2:00 AM61 °FClear.6 mph72%30.11 "Hg30 mi
Weather by CustomWeather, © 2015

See weather overviewHow to use our weather pages